Theta_e
328 328 325 321 327 321 314 309 295 299 299 293 291 292 293 302 303 301 303 306 305 312 315 315 314 315 313 314 316 318 318 314 315 304 302 320 331 330 334 337 337 338 338 339 340 340 343 345 345 345 344 342 343 343 343 343 343 342 341 342 342 342 341 340 340 341 343 344 344 344 343 344 346 346 345 345 345 344 345 344 345 344 345 345 345 345 345 344 343 341 341 342 341 341 341 340 339
325 326 321 318 315 313 304 307 297 291 293 289 293 293 296 299 300 299 304 307 309 311 313 313 314 316 321 321 320 320 318 320 321 320 325 330 329 329 334 338 338 337 338 339 339 340 342 343 346 345 345 345 343 343 342 342 341 341 341 342 342 342 341 340 340 342 342 343 344 344 344 344 344 344 344 344 343 344 344 343 344 343 344 344 345 344 344 344 343 342 339 340 340 340 339 338 338
325 325 318 319 313 311 309 303 294 290 289 286 289 293 300 304 303 305 308 310 312 313 314 313 316 315 315 318 318 316 310 324 324 325 323 327 323 325 334 337 337 337 338 338 337 338 341 343 345 346 346 345 342 342 342 342 342 342 342 341 342 341 342 341 340 342 343 343 343 343 343 344 343 343 343 344 343 344 343 343 343 345 346 345 344 345 344 343 343 343 341 339 339 339 338 338 338
328 325 318 315 306 309 301 298 294 293 289 289 290 295 301 303 304 307 309 311 312 312 313 312 311 315 317 316 317 322 318 319 325 324 320 322 322 327 332 336 337 337 338 337 336 339 340 343 345 346 345 346 343 342 341 341 340 340 342 341 340 339 340 340 340 342 343 343 343 345 347 346 346 345 343 344 344 344 344 344 343 343 344 344 343 343 344 343 343 342 340 339 339 338 338 337 337
322 321 320 314 308 301 302 297 295 289 289 289 289 298 303 306 306 308 310 310 311 312 312 314 311 315 321 319 321 312 314 323 324 328 324 325 327 328 331 334 335 336 335 335 338 339 341 343 344 345 346 346 343 342 340 339 340 340 341 343 345 340 339 340 341 341 341 342 342 344 346 346 346 345 346 345 345 344 344 344 344 344 344 343 343 343 343 342 341 341 340 339 338 337 336 336 337
319 317 322 313 304 307 302 293 290 290 293 293 290 296 304 308 308 308 309 311 312 312 313 312 312 311 316 319 322 316 323 317 324 325 324 323 328 330 330 334 336 335 334 336 339 339 340 342 344 345 346 345 342 341 341 341 341 340 340 345 346 342 340 341 342 343 344 344 343 343 345 345 345 345 345 344 344 344 344 343 343 342 342 342 342 342 342 342 342 340 338 337 337 336 335 335 336
315 312 312 310 310 306 296 292 293 291 295 295 294 301 305 307 309 309 309 309 311 312 312 313 319 317 314 320 321 324 327 327 325 325 326 327 330 330 330 333 335 333 334 335 337 339 340 342 345 346 345 345 342 340 340 340 340 340 340 344 345 345 345 345 345 344 344 344 343 343 344 344 344 344 343 343 343 342 342 342 342 342 341 341 341 341 341 341 340 339 337 336 335 335 334 334 335
318 310 308 302 299 300 295 293 293 291 296 297 299 304 306 308 309 308 307 306 307 307 310 314 313 312 312 321 314 324 328 329 328 328 328 329 329 328 329 330 333 333 333 334 335 338 345 341 345 344 344 342 343 341 340 339 339 340 344 344 344 344 345 344 344 343 342 342 342 343 343 343 343 343 342 342 342 342 341 341 342 341 341 340 340 339 339 338 338 338 337 336 334 334 333 333 334
311 312 311 304 298 300 296 294 292 295 297 298 298 304 312 309 308 307 305 308 307 309 310 311 312 306 312 318 316 323 325 328 328 328 328 329 328 328 328 331 333 332 333 334 336 338 340 341 343 345 343 343 343 341 341 341 342 344 344 343 344 344 344 343 343 342 342 341 341 342 342 342 342 341 341 341 341 340 340 340 341 341 340 339 338 337 337 337 337 337 336 335 334 333 332 333 333
308 308 299 302 300 296 295 294 291 295 296 298 299 304 305 305 305 306 304 303 306 308 310 311 312 313 318 315 317 321 322 327 326 325 327 328 328 328 328 333 334 333 333 334 335 337 339 344 339 341 342 343 342 342 341 343 343 343 343 343 343 343 343 342 341 341 341 341 341 341 341 341 341 340 340 340 340 340 339 339 339 339 339 339 338 338 338 337 337 336 336 334 333 332 332 332 332
303 309 309 301 295 294 294 292 292 296 297 300 300 303 304 304 306 303 303 304 306 309 312 311 311 316 319 318 317 325 328 327 324 322 324 326 328 328 330 335 334 333 332 333 335 336 336 335 341 338 341 340 341 342 343 343 343 343 343 344 343 342 341 341 340 340 340 340 340 340 340 340 340 340 339 339 339 339 339 339 339 339 339 338 337 337 337 336 336 336 335 334 333 332 331 331 331
303 302 304 296 295 295 295 292 293 295 298 298 299 302 302 306 305 302 302 304 308 309 310 309 307 314 316 316 316 324 327 326 325 325 325 327 326 328 330 333 333 333 333 334 334 333 333 334 335 339 336 338 340 341 342 343 343 343 343 342 341 341 340 340 340 340 340 340 340 340 340 342 340 339 339 339 340 339 339 338 338 338 337 337 337 337 336 336 336 335 334 333 332 332 331 330 330
306 306 299 298 295 298 297 296 292 295 295 297 300 303 303 307 305 304 301 304 305 307 308 309 312 307 309 314 319 324 324 325 326 326 327 325 327 328 329 332 333 333 334 333 333 333 332 332 333 333 335 335 335 336 338 340 342 343 343 343 341 342 341 340 340 340 340 341 343 342 342 342 342 342 340 340 340 338 338 338 338 338 337 338 337 336 336 336 335 335 334 333 332 331 330 330 330
311 308 303 299 298 296 296 297 294 292 295 299 301 302 303 304 305 306 302 302 304 304 309 310 308 320 316 318 318 319 322 326 327 327 326 327 327 327 328 330 332 333 333 333 333 332 331 331 331 330 334 336 335 334 334 337 340 342 341 341 341 341 341 341 341 342 342 341 341 340 340 340 341 341 341 340 339 339 338 338 338 338 337 337 337 336 337 336 335 335 334 333 332 331 330 330 330
308 312 306 303 296 296 297 298 296 293 294 299 302 303 305 308 305 304 308 305 308 312 313 317 315 304 308 315 314 319 324 326 326 327 326 327 327 327 328 328 329 331 332 333 333 331 331 330 330 329 332 334 334 333 332 335 334 337 339 339 339 340 340 340 340 339 338 338 337 336 336 335 334 336 336 337 336 336 335 334 336 337 337 336 336 336 337 336 336 335 333 333 332 331 330 330 329
312 308 306 300 295 296 297 298 297 293 294 299 302 303 303 306 307 303 306 307 308 312 309 307 313 308 314 316 319 324 326 326 326 326 325 324 326 327 327 326 327 328 328 332 332 331 331 330 329 328 330 332 332 332 332 332 332 332 335 336 337 337 337 337 335 334 332 332 332 331 330 329 329 329 329 331 332 335 333 330 333 335 335 336 335 336 336 336 335 335 335 333 332 331 330 330 331
313 308 299 297 297 298 298 295 295 292 295 300 302 303 302 302 306 306 307 308 308 307 310 312 311 321 321 322 324 327 326 326 325 324 323 322 323 323 324 323 325 323 326 328 331 331 331 331 329 328 329 330 331 331 331 332 332 330 331 332 333 334 334 333 332 327 325 325 326 325 327 328 328 328 328 327 326 327 325 327 331 335 335 335 334 334 335 334 334 333 333 332 332 331 331 329 328
310 301 298 296 301 299 300 297 296 297 298 300 302 303 302 301 304 306 307 306 306 306 311 314 318 320 324 325 328 327 326 325 325 322 321 320 321 321 321 322 322 321 322 323 326 330 331 331 329 328 329 328 329 331 332 332 331 331 331 332 332 331 329 327 327 328 330 326 323 326 328 328 327 327 327 330 325 327 327 326 330 334 335 334 333 333 333 333 333 333 332 332 332 331 327 318 319
304 300 299 295 299 302 302 299 297 297 297 298 300 299 302 302 303 305 302 302 304 304 308 312 313 317 324 325 325 325 325 324 323 321 320 319 320 321 321 321 321 321 321 321 323 326 331 332 330 329 329 328 329 330 332 331 331 330 330 331 330 327 329 328 328 328 327 327 326 326 326 327 328 327 327 327 326 322 326 325 328 331 333 332 333 333 333 332 332 332 332 332 331 330 319 316 316
306 302 297 297 303 299 299 300 299 298 299 299 298 299 300 304 304 305 302 300 302 303 304 307 311 316 320 322 324 324 324 323 323 322 320 319 320 321 321 320 321 322 322 322 323 326 327 331 331 331 330 329 330 330 330 330 331 330 330 330 329 328 328 328 328 328 328 327 327 327 326 325 326 327 329 328 325 322 322 322 325 327 328 328 329 330 330 331 331 332 332 331 330 323 317 317 318
306 300 298 300 299 298 298 299 299 299 298 299 299 298 299 301 304 303 301 300 299 302 306 310 309 315 320 322 323 323 322 322 322 322 321 320 319 320 321 321 323 323 324 324 323 325 325 327 331 330 330 329 330 330 329 329 330 329 329 329 329 328 327 328 328 328 328 328 327 327 327 324 327 327 326 325 323 323 322 323 323 325 325 324 323 323 322 320 322 321 319 320 317 317 316 318 317
306 302 302 303 298 296 299 299 301 300 300 299 298 297 299 301 301 301 301 298 296 300 303 308 312 317 322 322 322 323 322 321 321 321 321 320 319 317 318 318 320 323 323 323 323 324 326 326 326 326 330 329 330 330 329 328 328 327 328 329 329 328 328 328 327 328 328 328 327 327 327 326 326 326 325 324 323 322 322 321 322 323 322 323 322 323 321 319 318 319 317 318 317 317 317 317 316
301 303 304 305 298 297 300 300 300 299 300 298 298 300 299 298 298 298 300 300 301 304 304 305 310 318 324 325 323 322 321 321 321 320 321 320 320 318 317 319 320 321 322 323 324 324 326 326 325 325 328 328 328 329 329 327 326 326 328 328 328 327 328 327 326 327 328 329 327 327 325 325 325 325 325 324 323 323 322 322 321 322 322 322 321 321 321 321 319 319 318 319 317 317 317 316 316
305 300 304 302 299 298 299 299 300 298 298 298 299 300 298 298 297 299 298 299 302 302 303 307 313 317 325 323 323 322 322 322 321 322 322 322 322 321 318 319 320 321 321 322 324 324 324 326 326 326 326 327 327 327 327 325 326 324 327 326 328 326 327 326 324 326 327 329 327 327 324 325 325 323 323 322 321 322 322 323 322 321 321 322 322 320 320 320 320 319 320 320 316 316 317 316 315
304 303 306 302 298 298 299 298 298 298 298 299 298 298 297 297 297 299 297 299 300 301 303 310 315 317 323 323 322 322 322 322 322 322 322 322 323 323 321 319 320 321 320 322 324 324 324 326 327 326 325 326 326 326 325 324 324 324 324 324 326 324 327 326 324 325 326 327 328 326 324 323 322 323 322 322 319 321 323 323 321 321 322 323 321 318 320 320 318 316 318 318 316 316 316 316 315
306 306 305 300 298 298 298 299 298 297 300 299 298 296 296 298 300 298 299 300 301 300 303 308 315 315 319 322 322 322 321 321 322 322 322 323 323 322 322 320 320 320 321 323 323 324 325 325 326 326 326 326 326 325 324 323 323 324 323 323 324 322 326 325 324 324 325 327 327 326 324 324 322 322 322 321 320 320 320 321 321 321 321 320 319 319 316 318 317 316 315 316 319 317 316 318 316
309 307 307 299 300 297 299 299 298 296 301 299 298 297 299 299 298 295 299 301 302 300 302 303 313 314 315 321 322 322 322 322 322 323 323 323 322 323 323 323 320 321 322 322 323 323 324 324 326 326 327 325 325 325 323 324 323 323 323 323 323 323 324 324 323 324 324 325 327 326 324 324 323 323 322 322 321 320 320 320 320 319 318 317 318 320 317 317 317 317 318 317 318 316 315 313 314
306 305 299 299 303 298 298 298 299 298 299 300 299 298 299 300 298 297 299 301 301 299 302 303 304 311 314 318 322 322 322 323 323 323 322 322 322 323 323 323 322 320 321 322 323 323 324 324 325 326 327 326 326 326 323 323 323 324 323 323 323 323 323 324 324 324 322 324 326 325 324 323 323 323 323 323 322 321 320 319 319 319 320 318 319 320 319 318 317 315 316 316 316 316 315 314 314
306 304 300 301 303 302 299 298 299 299 299 301 300 300 298 299 297 300 302 301 302 302 303 304 304 304 307 315 319 321 322 322 323 323 323 324 325 325 324 325 325 322 323 323 324 322 323 324 325 326 326 326 325 326 325 324 324 324 323 323 323 324 323 324 324 324 324 324 325 324 324 324 323 323 323 323 322 322 321 320 319 320 320 320 319 319 318 317 315 314 315 315 315 315 315 315 316
308 306 302 302 302 299 304 300 299 299 300 300 304 293 297 302 304 304 304 302 301 302 302 302 303 304 305 309 316 318 320 321 322 323 324 325 325 326 325 326 326 325 323 323 324 323 324 325 326 326 326 325 325 326 326 324 324 324 323 323 323 323 323 323 323 323 324 324 324 324 324 324 323 323 322 322 322 322 322 321 320 320 320 320 320 319 318 317 317 315 316 314 317 315 315 316 315
301 303 304 296 297 296 304 302 300 298 300 303 304 294 297 304 306 308 308 303 301 301 300 300 302 304 304 305 309 315 317 320 323 324 325 326 326 326 326 327 326 326 323 324 324 324 323 324 325 326 324 325 324 325 324 325 324 323 323 324 324 324 323 323 323 323 323 324 324 324 325 324 324 324 322 323 322 322 321 321 320 321 321 320 319 320 321 319 319 319 314 317 317 315 316 318 317
301 299 294 296 297 297 302 305 300 298 300 303 303 294 298 303 306 310 303 302 301 301 300 300 301 304 305 304 305 309 316 318 322 325 326 326 326 327 327 326 327 327 326 325 325 325 324 324 324 325 323 324 324 324 324 325 324 324 324 323 324 324 324 323 324 324 324 324 323 324 325 325 324 325 323 323 322 321 322 321 322 321 321 321 320 320 321 320 319 319 318 319 316 317 317 318 316
301 297 290 294 295 298 300 303 302 303 299 300 303 295 297 299 304 307 303 301 301 300 300 300 301 302 305 304 305 307 311 315 317 322 324 326 327 327 327 327 327 327 327 326 325 325 324 324 323 324 323 323 324 324 324 324 324 324 324 324 325 324 324 324 324 325 324 324 323 323 325 325 324 325 324 322 323 321 321 321 322 322 322 322 320 320 320 320 320 320 318 318 319 318 316 316 315
295 298 295 295 296 296 295 300 302 301 300 297 301 299 299 300 302 304 304 300 300 299 300 300 300 300 303 304 305 307 309 313 315 317 322 325 326 327 328 325 327 327 327 327 326 326 325 324 323 324 323 323 324 324 323 324 324 324 324 324 323 325 325 325 325 325 325 324 323 323 325 325 324 324 324 322 322 323 322 321 322 323 322 322 321 320 321 320 320 320 319 318 318 318 315 315 314
294 295 293 295 296 298 298 297 301 299 299 298 298 298 300 303 302 303 302 299 300 299 299 300 300 301 300 302 305 307 309 311 315 317 319 323 325 326 327 326 326 326 327 327 327 326 326 325 324 322 323 323 323 324 323 323 324 324 323 323 324 324 325 325 325 324 324 324 324 324 325 325 323 324 323 322 322 322 322 322 322 322 323 322 322 320 320 320 320 319 319 318 317 318 318 316 317
298 298 296 294 294 294 296 299 300 302 297 297 296 296 299 301 302 303 302 299 299 300 299 299 300 301 302 301 304 307 309 311 315 317 319 322 324 325 325 326 326 326 326 327 326 326 326 326 325 324 323 324 323 324 323 321 321 322 322 321 322 322 324 323 324 324 324 324 324 324 324 326 324 324 324 323 323 323 323 323 322 322 322 322 321 320 319 319 319 319 318 318 317 316 315 317 316
303 300 297 296 295 296 299 298 299 302 297 296 296 298 298 299 300 302 303 302 297 297 298 298 299 299 300 300 302 306 308 311 313 315 318 319 322 324 325 325 325 325 326 326 326 326 326 326 324 324 324 324 323 323 322 322 321 321 321 322 322 322 322 323 324 324 324 324 324 324 324 325 325 324 323 324 323 321 323 323 323 322 322 323 322 322 321 321 321 321 320 317 317 315 314 314 315
301 298 297 295 296 295 298 296 295 298 296 293 295 295 296 298 299 300 300 299 299 298 297 297 298 299 299 299 299 304 307 309 309 309 314 318 319 322 324 324 322 323 324 325 326 326 327 327 326 326 325 325 324 324 323 322 322 323 322 322 323 322 321 321 323 323 324 324 324 324 324 325 326 325 323 324 323 323 323 323 323 323 322 323 323 323 322 319 320 320 319 316 316 316 315 315 316
301 298 296 294 294 297 296 294 297 298 297 292 293 293 296 298 300 302 302 302 301 301 301 301 300 300 300 300 300 301 304 307 307 310 312 317 318 320 323 323 324 325 325 325 326 326 326 326 326 326 326 326 326 325 325 323 323 323 323 323 323 321 323 323 324 324 323 324 324 324 325 325 326 325 324 323 323 324 323 323 323 324 323 322 322 322 322 321 321 320 319 319 315 315 316 316 316
298 296 294 292 293 295 291 293 295 298 295 292 292 291 293 295 297 298 301 301 302 303 302 302 303 303 302 302 301 301 301 305 306 307 309 314 318 319 321 322 324 325 324 324 325 325 326 325 326 326 326 327 326 326 323 326 325 325 324 324 324 324 323 322 323 322 323 323 324 325 325 325 326 325 325 324 323 324 323 323 323 324 324 324 323 323 322 322 321 321 320 319 318 315 314 315 316
299 297 294 294 295 296 295 291 292 295 295 295 292 291 293 294 295 298 299 301 302 304 303 303 302 302 304 305 303 302 302 302 304 307 308 310 315 318 320 322 324 323 324 324 325 325 326 326 326 326 327 326 327 325 324 325 324 323 324 323 321 321 320 321 322 322 323 323 324 324 325 325 326 326 325 325 323 324 323 323 323 323 324 324 324 323 323 323 322 322 321 319 318 317 314 314 314
297 299 299 297 297 296 295 294 293 289 288 291 292 283 282 287 291 293 296 296 297 301 302 303 304 303 300 299 301 302 302 302 303 305 308 310 314 318 320 321 322 323 324 325 326 326 326 326 326 326 327 327 327 326 326 325 324 324 323 322 321 322 322 322 322 322 322 322 323 325 325 326 326 326 326 326 325 323 324 323 323 322 323 323 324 324 324 323 322 321 321 320 318 319 318 314 313
295 296 301 301 299 296 295 294 293 285 284 290 293 287 281 287 291 293 294 294 296 298 297 301 303 304 303 302 301 301 302 302 301 302 306 308 311 315 318 320 321 322 323 325 325 325 326 326 326 326 327 326 327 326 326 324 324 324 324 324 323 323 322 323 325 325 325 325 324 324 325 325 326 326 326 326 326 324 324 324 323 322 323 324 323 324 323 323 323 322 322 321 320 319 318 315 315
294 299 302 301 299 296 294 293 291 286 288 292 291 288 282 286 292 296 298 296 297 298 299 298 300 301 302 303 303 301 302 303 303 302 303 307 310 313 317 319 320 322 323 323 323 324 324 325 325 325 326 325 326 326 325 325 324 324 324 324 323 323 323 323 323 324 325 324 324 324 324 325 326 326 327 327 327 325 324 325 325 323 323 324 323 323 324 324 324 323 322 322 322 320 319 318 315
296 300 302 301 300 296 294 291 289 290 288 285 286 291 286 282 288 292 293 293 295 297 298 299 300 300 300 302 302 302 302 303 303 302 301 302 305 308 313 317 320 321 322 321 322 323 324 324 323 324 325 325 325 324 325 325 324 324 324 324 323 323 324 323 321 321 322 322 323 324 324 324 325 326 327 327 327 327 324 325 326 325 324 324 322 324 324 325 324 323 322 321 321 321 320 320 318
298 300 301 299 296 294 293 286 287 286 284 283 285 289 284 283 286 291 291 292 294 296 298 299 301 301 301 300 300 301 301 301 300 301 302 302 302 304 308 313 316 319 320 320 321 321 321 321 321 321 324 325 325 324 324 325 324 322 323 323 322 323 322 322 319 320 321 321 322 323 324 324 325 325 326 327 327 328 327 325 326 326 325 325 321 324 324 324 324 324 323 323 322 321 321 320 319
300 300 297 295 292 289 286 285 282 283 283 283 287 289 287 281 284 290 289 291 294 295 296 298 300 301 301 301 300 300 299 298 299 299 299 300 301 302 302 307 312 315 316 317 318 320 320 321 321 321 323 324 324 324 323 323 324 323 323 323 322 322 322 321 321 321 322 320 322 323 323 325 325 325 325 325 327 328 328 327 326 327 327 325 323 324 324 324 324 324 324 323 322 322 321 320 318
300 293 292 293 289 289 285 285 286 282 280 281 286 289 289 282 281 289 294 293 292 295 296 298 296 296 297 297 297 298 299 299 299 298 298 298 299 299 299 300 303 311 314 316 317 319 319 320 321 320 321 322 323 323 323 323 323 323 323 323 322 322 322 321 321 321 321 321 321 322 323 323 324 325 325 325 325 326 327 328 327 327 327 327 326 326 326 326 326 325 325 323 322 322 322 320 319
297 294 294 289 283 285 280 283 282 282 279 282 281 285 285 287 289 290 291 292 293 293 294 296 295 295 295 295 295 295 296 296 297 296 297 297 297 298 297 299 299 301 312 315 317 318 319 319 319 320 320 321 322 322 322 323 323 323 323 323 323 322 322 322 322 321 322 321 322 321 321 322 323 323 324 324 325 325 326 326 327 327 327 327 327 327 327 327 326 325 325 324 323 322 322 321 320
294 293 289 286 279 277 276 277 280 278 280 281 283 285 285 285 287 298 298 300 300 298 294 294 294 294 294 295 295 296 295 294 295 295 295 295 296 296 296 296 297 297 299 308 312 314 315 317 317 318 320 320 320 319 321 322 323 324 324 324 323 323 322 322 322 322 322 322 322 322 322 322 322 323 324 324 325 325 326 327 327 327 328 328 327 327 327 327 327 326 325 324 323 323 323 321 321
295 295 294 288 286 279 276 278 278 277 277 280 282 281 279 282 285 290 298 301 296 293 296 294 292 292 292 293 294 295 295 295 294 295 296 297 298 297 298 298 297 297 298 298 300 306 308 313 315 316 317 316 316 318 319 321 322 323 324 324 324 324 323 323 323 323 323 322 322 322 322 323 323 323 324 324 324 325 326 327 328 328 328 328 327 327 326 327 326 326 325 324 324 323 322 321 321
291 294 294 288 288 285 280 280 279 277 277 277 278 282 281 285 289 293 293 292 293 292 293 294 294 295 294 295 295 294 294 294 294 295 297 297 296 296 296 297 297 297 297 297 298 301 305 310 310 313 315 315 315 316 318 320 321 322 323 323 324 324 322 323 323 322 322 323 323 322 322 322 323 323 324 323 323 324 325 326 326 327 328 328 327 327 327 326 326 326 325 324 323 323 322 321 321
292 294 289 291 291 286 282 282 282 278 277 278 277 282 284 287 293 296 296 292 294 293 292 292 293 293 293 294 293 294 295 294 295 295 295 296 296 296 295 295 295 296 296 297 297 297 300 302 304 306 307 307 310 313 316 318 320 320 321 322 323 323 323 322 323 322 322 322 322 322 322 323 323 323 323 322 323 323 324 325 325 326 326 327 327 327 326 326 325 325 324 324 323 323 321 321 321
293 287 292 294 293 289 284 279 276 276 274 276 280 281 281 283 282 289 293 293 293 291 292 292 291 292 292 293 294 294 295 295 294 294 293 294 294 295 295 294 295 297 296 296 297 296 297 298 299 302 301 303 302 303 306 308 312 314 317 318 319 321 322 322 322 322 321 321 321 322 322 321 322 322 322 322 322 322 323 318 324 324 325 326 325 326 326 326 325 323 323 324 324 323 321 321 321
297 294 298 294 284 284 283 279 274 272 272 272 276 281 280 284 286 287 290 292 292 293 292 290 292 292 292 293 293 293 293 294 295 295 295 295 295 295 294 296 295 296 296 297 298 297 297 297 297 298 299 299 299 300 300 303 304 309 313 315 316 317 319 320 321 321 321 320 320 320 320 321 321 319 318 318 319 321 321 321 322 322 323 324 325 325 324 325 325 324 322 322 322 322 321 320 320
295 297 295 294 289 284 284 283 277 279 272 273 272 278 280 286 287 289 291 292 294 294 291 292 293 293 294 293 293 293 293 294 295 295 295 295 294 294 295 295 296 297 296 296 297 297 298 298 299 298 298 298 298 299 300 302 304 305 308 309 311 314 315 316 317 317 318 319 320 319 319 317 318 314 317 317 318 319 319 319 320 321 321 322 323 323 323 323 323 323 322 320 319 320 320 319 318
290 293 290 290 287 287 288 286 281 278 272 272 272 274 280 283 290 292 295 294 295 295 294 293 292 292 293 293 294 294 294 295 294 294 294 295 295 295 295 293 294 294 295 295 295 296 296 297 297 297 300 300 300 301 300 302 302 304 304 306 308 308 309 311 310 311 314 315 316 315 316 316 312 315 314 315 315 316 318 318 319 319 321 321 321 321 322 321 320 320 321 320 317 317 317 317 315
294 294 291 292 289 284 284 281 285 278 280 276 273 278 279 285 291 296 295 296 295 294 295 294 291 293 293 293 292 293 294 293 293 294 293 293 293 295 295 295 294 295 296 295 295 295 295 297 299 298 297 299 300 300 301 302 300 302 302 304 305 304 306 306 307 308 309 310 310 311 312 309 311 313 312 315 315 315 315 317 318 319 319 320 320 320 318 317 318 319 319 319 317 315 314 313 309
Wind_Speed
9 8 7 7 1 1 3 2 2 2 2 2 1 1 2 0 2 3 4 3 4 1 2 2 5 6 3 5 12 9 7 1 1 2 4 2 3 9 13 13 11 9 9 6 4 3 5 8 11 11 11 11 13 13 12 12 13 13 13 12 13 14 13 12 14 13 15 15 15 15 15 17 17 16 16 16 16 16 16 17 17 17 18 18 20 20 20 19 18 18 17 17 17 16 15 14 14
6 7 7 5 3 2 2 1 1 2 3 4 1 1 1 1 4 4 5 5 1 1 2 4 6 10 14 14 11 7 9 5 1 3 3 4 8 9 12 13 12 11 9 6 4 5 4 5 9 10 11 12 14 14 12 12 12 12 13 13 13 14 13 11 13 14 14 15 16 15 15 15 16 16 16 16 16 16 16 16 16 16 17 17 18 19 18 18 18 17 17 16 16 15 15 14 13
6 6 7 5 2 1 0 2 1 1 3 2 1 1 2 10 6 4 5 5 4 4 5 4 7 5 5 3 6 5 1 2 7 5 5 7 11 7 12 12 10 11 11 5 5 5 5 5 9 10 12 13 14 13 12 13 13 12 12 12 12 13 13 12 12 15 14 15 15 15 15 14 15 15 16 16 16 16 16 16 16 17 18 17 18 18 18 17 17 17 16 15 15 14 14 13 12
4 1 1 3 3 3 1 1 1 1 3 3 0 1 4 7 4 6 4 5 3 4 2 3 4 3 6 10 8 8 5 2 1 5 6 5 5 9 11 12 11 10 8 6 6 5 4 7 9 11 13 12 12 14 12 12 12 12 12 12 11 11 13 13 13 14 15 14 14 15 15 15 15 15 17 17 16 16 16 16 16 16 17 16 17 18 18 17 16 15 15 14 14 14 13 12 12
4 2 3 2 1 3 1 1 1 3 4 2 4 3 5 7 6 5 3 3 3 5 2 2 3 3 4 4 1 2 2 4 3 1 3 4 7 7 11 11 10 9 8 8 6 5 5 9 9 10 13 12 12 13 13 13 12 12 12 12 10 10 12 12 12 12 13 13 14 14 14 14 15 16 16 16 17 17 16 16 16 16 16 16 16 16 16 16 15 15 14 13 13 13 12 12 11
4 5 0 3 1 2 2 2 3 3 1 2 3 4 4 5 8 5 3 4 2 6 3 2 2 2 4 3 2 3 6 5 4 2 4 6 9 10 9 10 10 9 9 8 7 5 5 10 10 11 13 13 12 11 11 12 12 11 11 12 11 10 13 12 12 13 13 13 13 13 15 15 16 16 16 16 17 17 16 16 16 16 16 16 16 16 16 16 15 15 14 13 13 13 12 12 11
3 6 3 2 2 2 2 1 1 1 3 2 4 6 8 5 6 8 4 3 4 4 3 3 8 7 6 1 3 2 3 5 3 5 5 6 10 8 9 10 9 10 10 8 6 6 7 10 11 12 11 10 12 11 10 11 11 11 11 11 11 13 13 13 12 13 12 12 13 14 15 16 16 16 16 16 16 17 16 15 16 15 15 14 15 15 15 15 15 14 14 13 13 13 12 11 11
1 2 2 3 2 2 1 1 4 3 1 3 4 9 6 7 7 5 4 3 1 2 0 2 3 6 2 3 4 2 7 3 7 7 10 10 8 8 8 8 12 10 9 8 6 6 11 10 11 12 13 12 10 11 10 10 10 11 12 11 11 12 12 12 13 12 13 13 13 14 14 15 15 15 14 15 15 15 15 15 15 15 14 14 14 14 14 14 14 14 13 13 13 12 12 11 11
4 1 1 1 1 1 1 1 2 2 1 2 2 5 8 9 6 5 2 1 2 1 2 2 3 5 1 7 4 3 5 9 10 10 9 12 8 7 6 9 11 9 9 7 6 6 6 10 9 9 11 11 10 11 10 11 10 11 10 10 11 12 12 12 13 12 12 12 13 14 13 13 14 14 14 14 15 15 14 14 14 14 13 14 14 13 13 13 13 13 13 13 12 12 12 11 11
4 2 3 0 1 5 2 4 3 1 2 1 5 5 6 5 5 6 6 4 4 3 0 3 5 6 5 9 5 3 4 8 9 8 8 9 8 6 7 11 13 11 8 7 6 6 6 9 8 10 11 11 10 8 8 12 12 11 11 11 12 13 12 11 12 12 12 12 12 12 12 13 12 13 13 14 14 14 13 13 13 13 12 13 13 13 13 13 13 13 13 13 12 12 12 11 11
3 3 1 1 2 1 3 1 1 1 4 1 3 1 2 3 6 4 5 5 3 4 1 4 7 10 7 2 1 1 6 9 11 9 5 6 6 8 10 11 11 12 10 8 6 5 5 5 9 9 10 11 11 10 9 10 11 11 12 12 12 12 12 12 12 11 12 12 12 12 12 12 12 12 12 12 13 13 13 13 12 12 12 13 12 12 12 12 12 12 12 12 12 12 11 10 10
2 3 3 1 1 2 4 2 4 2 2 2 1 2 2 3 4 5 5 6 2 3 3 3 1 5 6 4 1 5 7 7 8 7 5 3 6 8 11 9 10 11 11 8 8 6 5 4 5 8 11 11 10 10 9 9 10 12 12 12 12 12 12 12 11 11 11 11 12 11 12 12 11 13 13 12 10 12 12 12 12 12 11 12 11 11 11 11 11 11 12 12 12 11 11 10 9
1 1 2 1 2 0 3 1 4 2 1 2 1 1 1 2 1 6 6 7 5 5 0 3 3 5 2 1 2 3 8 6 7 6 5 4 6 8 9 10 11 11 10 8 9 6 6 5 4 4 8 12 10 9 9 8 9 9 8 9 10 10 10 11 11 11 11 11 12 12 11 11 11 11 11 10 10 11 11 10 11 11 11 11 11 11 11 11 10 10 10 11 11 11 10 9 8
1 1 1 2 0 2 2 1 1 3 1 1 1 2 2 1 2 1 8 4 2 5 1 4 2 8 5 4 1 5 5 7 9 6 4 5 6 7 8 9 10 10 10 9 8 7 6 6 6 5 6 7 6 7 9 8 7 7 8 10 11 11 10 10 9 10 12 11 10 10 10 10 10 11 11 11 11 11 9 9 10 11 11 11 11 10 10 10 10 9 9 9 10 9 9 8 7
1 0 2 1 4 2 2 0 3 5 1 0 1 1 1 1 2 6 8 6 2 0 0 1 3 3 5 7 4 8 7 10 11 6 5 6 7 7 7 8 9 9 9 9 8 8 7 7 7 6 6 6 6 5 4 6 9 8 9 10 11 11 10 10 11 10 11 11 11 10 11 11 11 11 11 11 10 10 9 8 8 9 10 9 10 10 9 9 9 9 8 8 8 8 8 7 6
2 4 1 1 3 1 5 2 1 6 0 0 3 2 3 1 1 3 0 2 2 1 1 0 3 2 3 9 7 14 10 11 10 7 7 6 6 6 6 5 7 8 6 9 9 8 7 7 6 6 7 7 6 5 5 4 7 9 9 11 11 11 11 10 11 11 11 11 11 11 11 9 9 9 11 8 10 10 9 7 8 8 9 9 9 9 9 8 7 7 7 7 7 7 7 5 3
1 2 2 1 5 2 3 2 1 1 1 0 2 1 1 0 1 1 0 2 4 1 4 2 2 2 1 2 9 13 12 11 9 9 8 6 7 6 6 5 5 4 3 7 8 8 8 9 8 6 6 8 7 7 5 5 6 9 8 10 12 12 10 10 10 11 10 10 9 10 9 7 6 6 7 6 8 6 8 7 7 7 8 8 8 8 8 7 7 6 6 6 6 5 3 2 2
1 1 3 2 5 3 1 1 1 4 3 2 1 1 3 1 1 0 1 3 2 2 5 2 8 5 3 4 13 13 13 13 11 12 9 7 6 7 7 5 6 6 5 4 6 9 8 8 10 9 7 8 8 7 5 5 5 7 6 6 6 8 9 9 8 6 7 5 9 8 6 6 5 5 6 6 5 6 6 9 8 9 9 7 7 7 6 6 6 6 5 6 6 5 4 2 1
2 1 2 5 3 3 1 2 2 1 2 3 2 3 2 2 4 1 2 1 3 3 2 4 6 5 6 9 12 14 13 12 11 10 11 12 10 11 10 8 7 6 5 4 6 7 9 8 9 9 8 8 9 7 6 6 7 5 6 6 5 7 7 7 5 6 5 6 5 5 5 6 6 5 5 6 6 7 7 8 8 9 9 8 7 7 6 5 5 5 5 5 5 5 3 2 2
2 2 3 4 2 1 2 2 1 2 2 4 3 1 4 1 1 0 1 2 2 5 5 2 6 7 8 8 11 12 12 11 11 11 11 10 9 11 10 9 9 9 8 6 6 5 8 9 9 9 9 8 9 7 6 6 6 6 6 5 6 5 6 6 5 5 5 6 6 5 5 4 4 5 7 11 9 5 5 6 8 8 7 7 8 5 6 6 6 5 4 4 4 3 3 4 4
1 2 4 3 3 2 1 2 2 1 3 1 2 1 2 1 1 2 2 1 2 5 7 11 10 13 11 11 11 11 12 11 10 10 10 9 7 7 9 11 11 11 9 6 5 7 7 8 8 8 9 7 10 8 7 7 6 6 6 6 6 6 6 5 6 6 6 6 6 5 4 3 4 5 6 6 6 5 5 4 4 4 4 3 5 3 4 3 3 3 2 3 4 3 3 4 3
3 5 4 3 0 3 2 2 2 1 0 3 1 3 2 1 1 1 2 2 2 4 4 8 10 15 15 13 12 10 12 12 12 11 11 13 12 12 8 5 4 6 6 8 8 8 8 6 7 6 8 7 9 9 8 8 8 7 6 7 7 6 6 6 6 6 6 6 5 6 5 5 5 6 6 6 6 6 5 5 5 4 4 4 4 4 4 3 3 3 3 4 5 3 3 3 1
3 3 3 5 3 4 2 1 1 0 0 2 1 1 1 1 1 2 3 5 4 3 5 6 10 16 17 15 13 12 12 13 14 14 13 12 11 10 11 10 10 10 9 10 8 8 9 8 7 6 8 8 9 9 8 8 7 7 7 7 7 7 6 7 7 6 6 6 5 6 6 6 6 6 7 6 7 6 6 6 5 5 5 5 4 5 4 4 4 5 5 5 5 3 4 2 3
2 4 2 5 6 6 4 3 2 1 5 1 2 1 1 0 1 0 2 4 8 5 2 5 10 12 12 13 15 17 17 15 16 15 15 15 15 13 12 13 10 8 8 10 9 9 10 11 9 7 7 8 7 8 8 8 7 7 8 8 8 9 8 7 7 7 6 7 5 6 5 7 7 6 6 6 6 5 6 6 5 5 5 5 5 5 5 5 5 5 5 5 3 4 3 4 3
5 3 1 2 2 4 4 4 2 1 1 1 4 1 3 3 2 0 4 6 5 4 3 6 9 12 13 14 14 13 13 12 12 12 8 8 10 8 7 8 9 9 11 10 10 9 11 11 10 10 7 8 7 8 8 7 8 7 8 8 8 9 8 7 7 7 7 7 6 6 5 7 6 7 6 6 5 6 6 6 5 6 6 6 5 6 5 5 5 4 4 5 4 3 3 3 3
2 5 1 1 2 4 4 3 2 2 1 2 1 3 4 6 3 4 8 7 8 4 3 7 10 11 13 14 14 13 12 14 12 11 14 10 9 10 9 8 9 11 13 12 11 10 9 9 11 12 10 9 8 7 7 7 7 8 7 8 8 8 8 8 7 7 7 7 7 6 6 6 6 7 6 6 6 6 6 6 6 6 7 6 6 6 4 4 4 3 3 3 4 4 4 6 4
3 3 2 4 3 4 2 4 4 4 1 3 4 3 3 1 5 6 3 9 8 3 5 5 11 12 12 10 11 12 13 13 15 14 9 7 8 12 12 8 9 12 11 12 11 10 9 9 10 11 11 9 7 8 7 8 8 8 7 6 7 8 8 9 7 7 7 7 8 7 6 7 7 6 6 6 6 6 5 5 6 5 5 4 5 5 4 4 4 5 5 6 5 4 5 3 4
4 3 3 3 0 3 4 3 4 2 2 3 4 4 3 3 2 9 3 3 2 7 5 5 7 9 10 11 12 10 11 12 10 8 14 13 11 11 12 12 9 9 12 12 11 10 11 12 12 12 12 11 10 10 7 8 8 9 7 6 6 6 7 8 8 7 7 8 8 8 7 7 6 6 6 6 6 6 5 5 5 5 6 5 5 5 5 5 5 4 5 4 4 4 3 2 3
3 5 3 1 2 3 4 6 4 5 4 3 3 2 6 4 8 6 9 6 3 6 8 8 8 8 8 9 10 9 11 10 10 10 13 14 12 11 14 13 11 9 9 12 11 11 13 12 12 12 12 11 12 12 9 8 8 8 8 7 6 6 6 6 7 7 7 7 8 9 8 8 7 7 7 7 7 6 6 6 5 5 5 5 5 5 5 5 4 3 3 3 4 3 2 3 2
3 3 3 3 2 4 9 3 4 6 3 6 5 4 7 9 14 10 11 9 4 5 7 7 6 6 6 7 9 10 8 9 12 14 12 11 11 13 14 13 12 9 8 7 10 12 11 9 8 9 11 12 13 11 10 8 8 8 8 7 6 6 6 6 6 6 6 6 7 8 8 7 7 6 6 6 7 6 6 6 6 6 6 5 5 6 6 6 6 4 4 3 4 3 3 4 3
5 2 3 2 1 6 4 8 7 8 4 8 4 5 6 4 5 8 9 8 9 8 6 6 6 6 6 7 7 9 11 12 15 14 13 12 11 11 13 11 12 10 6 7 11 11 11 10 9 8 10 11 11 11 11 10 7 8 8 8 7 7 6 6 6 6 6 6 7 7 8 7 7 7 6 7 7 7 7 7 7 7 6 6 6 6 6 6 6 6 4 5 4 4 4 5 4
2 5 3 1 7 6 6 5 10 12 2 6 6 4 11 11 10 8 2 8 10 9 8 7 6 6 7 7 7 7 10 11 11 12 13 13 12 11 12 12 11 11 10 9 10 10 11 11 10 10 9 11 11 11 10 10 9 9 8 9 8 9 8 7 7 7 6 6 6 7 8 9 9 9 8 7 7 7 8 7 7 7 7 7 7 6 6 7 6 6 5 6 6 6 5 6 4
1 6 2 5 5 8 5 2 10 10 5 3 12 6 3 6 9 8 3 7 9 10 8 8 8 8 8 8 8 7 6 6 7 10 12 12 12 12 12 12 12 14 12 9 11 10 11 11 12 11 12 11 10 10 9 7 8 8 8 9 9 9 9 9 8 8 7 6 6 7 8 9 9 10 9 7 7 8 7 8 7 8 7 7 7 7 7 7 6 6 6 6 7 7 6 6 5
5 2 4 4 7 3 4 3 4 5 9 6 7 5 8 2 2 3 3 7 8 8 9 8 8 7 8 8 9 9 9 8 10 10 12 13 11 13 12 12 12 12 12 12 10 12 12 11 11 12 10 10 10 10 9 8 8 7 7 7 7 9 9 8 8 8 9 7 6 7 7 8 9 9 9 7 7 8 8 8 7 8 8 7 7 7 8 7 7 7 7 6 7 6 6 5 5
9 7 5 5 2 6 6 4 4 7 7 9 7 10 14 9 6 7 5 5 9 9 9 9 9 7 7 7 8 9 10 10 12 11 11 11 11 12 12 12 12 11 10 12 11 10 10 10 10 10 10 10 9 9 8 7 7 6 5 6 7 7 7 7 7 8 9 8 8 7 8 8 8 8 9 8 8 7 8 8 7 8 8 8 8 8 8 8 7 7 7 6 5 6 6 6 6
12 10 8 4 5 4 5 6 1 14 8 9 8 11 13 13 10 8 7 6 7 9 8 8 8 8 9 8 8 9 9 12 12 11 11 10 11 11 11 11 11 11 11 12 12 11 11 10 10 10 10 10 8 9 8 7 7 7 7 5 6 7 7 6 7 8 7 9 8 7 7 8 8 9 9 9 9 8 8 9 8 7 8 8 9 9 8 8 9 8 7 7 6 6 5 6 5
9 7 5 6 5 4 3 3 5 10 5 11 11 10 10 11 9 10 11 7 6 7 8 9 9 10 10 9 9 11 11 13 10 10 10 11 12 11 10 10 11 11 11 13 13 13 14 13 11 13 11 11 10 10 10 10 9 7 7 9 10 8 8 7 8 8 8 8 8 9 8 8 8 9 10 9 10 9 8 8 9 8 7 8 9 10 9 9 9 9 8 7 8 7 6 5 5
5 4 5 6 7 8 5 5 2 1 4 4 5 5 9 10 7 9 8 6 10 11 11 11 11 11 10 10 9 10 12 6 6 5 8 9 9 10 10 9 9 12 12 13 15 16 14 13 14 13 10 11 12 12 11 11 11 11 10 10 8 8 8 8 9 8 9 8 9 10 9 9 10 11 10 10 10 10 9 8 9 10 8 8 9 9 9 9 9 8 7 6 6 9 7 7 6
6 4 3 4 6 4 1 2 1 0 2 7 2 5 10 9 8 8 7 8 7 10 13 14 13 12 10 9 10 10 7 8 8 10 10 11 11 11 11 11 11 14 13 14 15 13 13 14 14 12 12 13 12 12 11 12 11 10 10 8 10 7 7 8 8 8 8 8 9 10 10 10 11 11 11 11 11 11 11 10 10 9 10 8 8 9 9 10 9 11 9 9 6 5 6 5 7
6 4 3 5 4 6 2 2 0 1 4 1 0 4 8 7 7 10 10 7 7 9 12 14 13 14 13 13 13 12 11 11 11 12 12 11 12 12 11 11 13 11 10 11 12 15 12 12 13 14 13 13 12 13 13 12 11 10 10 8 6 8 7 6 7 6 8 8 10 10 10 10 11 11 12 12 11 11 12 12 10 10 10 9 10 10 10 11 10 9 9 9 7 7 6 7 7
5 5 3 4 2 3 5 5 2 1 3 1 2 6 9 6 10 11 10 12 14 13 9 10 10 10 11 11 9 11 14 13 12 11 10 10 10 12 14 15 13 13 13 13 13 14 12 16 15 15 13 14 13 13 14 10 9 8 8 5 4 4 2 6 7 9 10 10 10 10 13 11 11 11 12 13 12 13 12 12 12 12 11 11 10 11 11 12 12 11 12 10 11 10 8 6 6
6 6 7 5 4 1 1 1 5 2 3 2 2 4 6 4 4 9 9 4 7 8 13 16 14 9 7 9 11 9 9 10 13 14 14 13 13 12 11 12 12 13 14 14 15 15 14 13 13 13 12 12 13 14 14 11 11 11 10 10 10 10 11 10 13 15 12 13 15 12 9 10 11 11 11 13 13 12 13 13 13 12 12 11 12 11 11 10 12 12 12 11 12 11 9 7 6
8 7 9 7 4 7 5 1 1 2 4 3 2 7 9 5 8 6 6 5 10 7 7 12 12 13 11 11 10 11 12 10 8 9 9 10 12 11 12 12 13 13 13 12 12 13 13 12 12 13 13 11 11 11 12 11 11 11 13 14 13 13 14 12 12 9 10 10 8 8 10 9 10 11 11 12 12 13 12 13 13 13 12 12 11 11 12 13 12 13 11 11 11 10 8 9 10
6 3 9 5 4 3 5 6 3 2 1 3 2 3 3 10 8 6 10 11 12 13 12 8 10 10 12 12 12 11 12 12 12 12 11 11 11 13 14 14 12 13 12 8 8 8 11 13 12 13 11 10 9 9 11 13 13 12 12 12 12 12 14 14 11 10 7 6 8 10 8 9 9 9 10 11 12 12 12 12 12 12 12 12 12 12 13 12 10 10 11 13 11 10 11 11 10
4 3 8 9 8 4 6 5 3 0 1 7 2 0 1 6 8 3 3 7 10 14 13 13 11 10 10 11 11 13 14 13 12 10 10 10 11 11 10 10 11 11 10 10 10 11 10 9 8 8 10 10 9 10 12 13 13 13 12 11 11 12 12 10 5 5 7 6 8 9 10 10 10 10 10 11 11 12 12 12 12 12 12 12 11 11 12 12 13 12 12 11 12 11 10 10 9
1 6 8 7 9 6 7 4 3 1 2 8 3 3 4 7 9 7 2 6 14 12 11 13 12 11 11 11 10 12 10 8 6 8 9 9 9 9 10 9 9 11 9 8 8 7 7 6 8 9 12 11 11 10 12 14 14 11 11 12 14 12 9 7 5 7 7 7 10 11 11 10 11 11 12 12 12 13 13 13 13 14 14 12 11 12 12 12 12 13 13 13 13 12 10 10 12
4 10 9 7 7 5 3 6 4 4 7 7 6 5 5 8 5 10 5 9 8 7 6 8 8 8 7 9 9 8 7 6 6 7 6 6 7 8 7 10 10 8 7 7 8 8 8 9 10 11 13 11 10 12 12 13 13 12 13 13 14 14 12 9 9 10 9 8 11 12 11 12 11 12 11 12 14 14 14 14 14 15 13 12 12 12 12 13 12 12 12 12 13 14 11 11 10
9 3 6 8 5 6 5 2 4 2 7 1 8 9 10 10 5 10 9 6 6 7 8 8 5 3 3 4 5 6 7 7 7 5 5 5 3 5 4 6 7 9 8 9 9 9 9 10 10 13 12 12 11 11 11 12 11 13 13 13 15 15 12 11 13 13 12 12 12 12 10 9 11 11 12 13 14 16 14 13 13 14 13 13 14 12 12 12 11 11 11 11 12 13 11 11 11
8 9 9 10 2 3 2 2 4 8 7 2 0 4 1 18 8 8 5 8 8 6 7 7 7 5 5 4 4 3 4 4 5 5 5 4 5 5 5 6 5 5 9 11 11 10 10 10 11 12 13 12 11 10 11 12 11 13 15 14 14 12 12 13 13 12 11 12 11 11 10 11 10 10 13 13 15 16 13 13 13 13 12 13 13 12 12 12 11 10 11 12 13 13 13 13 12
11 12 10 8 5 2 4 2 2 4 4 4 0 2 7 1 5 14 19 20 12 10 6 4 6 6 5 5 5 3 3 4 5 5 5 5 5 5 5 5 4 5 5 7 7 7 7 8 9 11 13 10 8 8 10 11 13 13 12 12 12 11 12 13 13 13 12 11 11 12 12 11 11 13 13 13 12 10 12 13 12 13 13 12 12 12 12 12 12 11 11 11 13 12 12 14 13
11 5 11 8 8 6 7 7 10 9 5 1 3 2 7 5 6 4 17 17 2 3 5 5 5 5 5 3 2 0 2 4 4 5 5 5 6 5 5 5 5 5 5 5 5 5 5 6 7 9 9 7 7 9 7 10 11 12 12 11 12 11 12 12 12 12 12 12 11 11 11 10 11 11 11 10 8 10 11 11 13 13 13 12 12 12 12 12 13 12 11 12 11 11 12 12 12
1 4 6 4 9 3 3 4 3 2 1 0 2 7 4 6 2 7 5 6 7 2 5 4 4 2 3 1 2 4 4 4 4 5 5 5 5 5 5 5 5 5 5 4 5 5 6 7 6 8 10 8 8 8 9 10 11 10 10 12 13 12 10 10 10 10 10 10 9 10 11 11 10 10 9 9 9 9 11 11 12 13 13 13 12 12 12 12 13 13 12 12 12 9 11 13 12
7 8 11 9 3 4 3 2 0 2 3 8 3 6 6 7 8 11 10 6 9 6 4 4 5 3 2 3 4 4 4 4 3 4 5 5 3 3 4 4 4 3 2 3 3 4 5 6 6 7 7 5 7 7 8 7 8 8 10 11 10 10 10 11 11 11 11 10 10 10 11 11 10 10 10 8 10 10 11 12 12 13 13 12 13 13 13 12 11 12 13 13 13 11 11 12 11
7 6 8 4 3 5 4 4 1 0 4 6 4 10 2 2 9 2 8 9 10 5 6 6 5 2 4 4 5 5 5 5 4 3 3 3 3 4 4 3 4 4 5 4 4 4 4 5 5 6 5 6 5 4 5 5 5 6 6 7 7 8 8 9 9 10 9 9 10 10 9 10 10 9 9 8 9 10 11 12 12 11 11 11 12 13 13 12 11 9 11 13 13 12 12 11 11
10 11 5 10 4 5 3 2 2 2 4 5 3 5 5 10 10 0 4 10 10 8 6 5 6 6 6 5 5 5 3 2 2 4 4 3 3 3 4 4 4 4 5 5 5 4 4 4 4 4 5 4 4 4 4 4 4 5 5 7 8 9 9 9 9 9 8 9 11 9 9 10 8 7 7 7 8 9 9 10 10 10 10 11 12 12 11 11 12 12 10 9 10 12 12 13 11
2 6 9 4 3 1 8 8 3 5 5 1 7 2 8 9 8 10 9 10 12 10 7 9 9 8 7 7 6 6 5 5 5 5 5 4 4 4 4 4 4 5 5 4 4 2 2 2 1 2 2 3 4 5 5 7 7 7 8 7 7 7 7 7 7 7 8 9 9 8 8 7 8 5 7 7 7 9 9 10 9 10 10 11 11 11 9 10 10 12 11 9 9 11 13 14 12
6 9 8 4 1 2 3 1 5 5 4 4 3 6 8 7 7 9 13 11 13 14 12 9 8 8 9 9 9 7 6 6 5 5 5 4 4 4 4 4 4 2 1 1 2 3 4 2 4 4 6 7 7 7 6 8 5 7 6 8 7 5 5 5 5 5 6 7 7 7 7 6 5 7 5 6 7 8 8 9 10 10 11 11 10 9 8 9 9 10 11 12 10 11 12 11 11
16 16 14 14 12 7 10 8 0 2 3 6 5 13 4 7 3 10 12 10 7 7 10 9 8 10 11 8 7 7 6 6 6 5 5 5 4 3 2 1 0 1 1 2 4 3 4 5 6 5 5 6 7 8 7 7 5 4 5 5 5 4 4 4 5 5 6 5 5 5 5 5 5 6 5 7 7 7 7 9 10 11 11 10 9 8 7 7 9 12 11 9 10 10 10 8 7
Wind_Direction
323 322 311 308 264 228 55 9 47 307 61 292 244 20 196 7 143 59 62 8 56 340 125 76 36 28 83 131 117 98 17 87 262 136 211 154 117 120 122 126 129 124 123 132 131 107 101 110 113 114 116 119 113 110 108 111 112 109 97 95 96 98 99 108 109 105 99 96 96 99 99 100 100 99 98 97 95 92 92 91 91 89 86 85 85 82 79 77 76 75 75 75 76 76 75 72 67
314 321 314 307 286 60 316 125 110 360 40 30 41 93 162 58 38 99 85 85 155 133 74 78 57 68 93 117 129 103 41 27 13 124 84 93 113 114 120 127 130 128 124 133 126 116 119 116 120 122 118 115 117 117 116 111 105 105 112 113 110 109 108 106 107 98 98 100 102 101 100 97 97 98 98 96 96 93 91 91 90 88 89 90 88 85 82 79 78 76 76 77 76 75 74 71 66
318 347 332 1 26 91 257 45 355 13 80 63 273 170 38 72 98 109 105 100 117 113 73 64 66 50 97 122 43 58 241 33 77 71 91 126 120 141 127 129 130 129 129 135 122 120 124 131 126 128 125 124 124 122 122 113 110 113 112 108 105 113 111 110 108 108 106 105 103 105 104 103 104 102 98 94 92 90 88 86 84 83 78 81 89 87 83 79 77 75 76 77 78 77 75 71 64
306 234 166 22 327 24 65 17 126 145 121 180 352 332 97 121 116 120 120 116 115 96 67 38 54 284 82 67 103 76 101 125 32 120 123 143 143 140 130 133 132 130 132 128 124 122 125 133 133 136 131 125 126 124 120 119 120 116 108 108 111 109 114 114 114 112 108 106 106 96 91 95 91 97 103 102 96 92 90 89 87 86 90 90 85 84 81 78 77 78 79 78 77 77 75 71 65
319 274 152 85 73 348 77 203 113 98 74 192 122 84 136 121 125 107 111 125 73 71 41 88 68 14 83 94 151 101 164 100 121 74 109 118 132 131 132 130 130 133 128 125 121 125 126 124 127 135 133 126 126 125 126 123 117 115 116 97 86 115 112 107 102 102 107 107 103 93 93 99 101 100 95 98 96 91 88 88 88 85 85 85 84 85 86 85 81 81 81 79 78 76 72 67 62
303 334 170 116 180 183 49 30 347 43 230 156 101 142 138 132 115 110 88 60 93 81 95 76 151 111 35 7 24 105 142 137 175 75 126 155 132 133 122 126 130 124 123 122 122 123 128 128 132 139 135 130 126 126 125 122 121 122 120 96 90 101 114 110 109 105 102 97 100 100 100 103 105 101 99 98 95 94 92 89 89 90 88 86 89 90 86 84 83 82 81 80 79 76 72 66 59
331 10 357 24 345 58 169 98 312 161 346 126 118 137 138 128 123 106 85 47 341 69 50 88 102 103 85 153 62 63 237 141 126 149 132 149 124 121 124 130 125 121 124 121 121 127 134 135 135 132 126 129 125 124 124 121 121 123 122 109 108 104 106 110 111 112 109 109 113 104 103 106 104 100 97 95 96 95 95 93 91 89 88 88 86 87 87 87 86 84 82 80 78 76 72 67 60
228 84 291 53 297 50 354 197 225 159 42 97 140 125 131 130 126 109 158 93 234 99 331 92 87 84 11 54 114 319 39 63 111 117 127 121 122 126 135 118 119 125 125 126 127 135 140 141 142 137 139 138 131 128 128 123 124 124 113 115 119 116 110 117 120 119 117 116 115 108 105 105 105 102 100 99 96 96 97 96 95 94 92 89 90 90 89 89 87 85 84 83 80 78 74 69 61
1 97 325 66 349 9 22 162 230 241 144 22 54 133 141 142 136 118 124 144 83 114 133 82 105 86 206 72 60 90 57 92 107 117 124 126 132 143 126 122 121 127 125 124 125 129 136 147 147 144 136 136 131 137 141 129 121 118 118 123 126 124 120 122 120 120 119 119 115 107 109 109 107 105 103 103 103 103 103 101 98 96 97 97 95 96 95 91 87 86 84 84 82 78 75 69 61
341 102 304 173 126 320 333 303 92 217 116 182 113 110 140 138 117 130 133 83 151 94 336 126 89 109 126 96 109 82 123 110 108 109 130 138 140 138 106 116 124 125 125 123 125 133 138 144 137 138 137 130 127 130 133 127 128 131 124 124 127 128 123 126 121 120 118 119 119 114 112 109 106 103 103 104 106 105 104 102 101 102 100 97 99 97 94 90 87 86 85 84 81 77 72 67 60
317 354 159 2 18 306 304 296 186 130 103 83 47 23 115 121 122 122 125 131 110 129 183 100 94 132 117 75 310 262 131 121 123 143 162 151 132 131 111 124 126 129 131 130 130 129 127 133 128 126 132 130 130 128 120 124 134 138 134 133 132 129 127 125 125 123 122 123 124 121 114 112 110 108 107 105 106 106 106 104 103 104 104 100 100 97 92 88 87 84 82 81 80 77 72 68 62
335 360 2 195 262 184 249 180 152 77 21 28 29 323 360 99 99 108 129 102 118 136 150 110 178 131 79 126 159 148 137 131 137 149 172 134 124 125 121 127 129 130 134 138 130 130 128 128 120 122 127 131 130 129 131 135 139 143 142 142 142 136 133 128 125 125 126 126 128 124 114 102 103 112 109 105 106 114 112 110 110 105 107 106 104 101 100 95 90 87 83 80 79 77 74 68 61
109 69 70 101 238 250 276 99 162 112 11 334 186 283 19 104 107 164 142 138 146 121 84 217 166 97 109 132 191 157 142 160 144 149 149 101 131 121 114 129 132 133 136 140 133 141 135 130 125 119 130 128 127 126 133 140 142 147 148 143 128 124 124 124 128 134 131 111 98 99 97 93 97 98 100 98 98 108 112 108 109 112 112 108 105 104 100 97 92 90 87 83 81 79 75 68 58
117 180 108 292 159 316 303 245 75 86 5 255 277 287 352 81 6 156 121 77 82 128 234 215 74 100 88 94 124 183 175 162 141 150 119 117 123 115 110 124 133 138 141 146 144 150 145 142 135 132 128 127 128 127 132 138 139 129 126 128 125 125 128 128 129 122 109 106 103 102 98 96 94 93 92 95 98 95 96 100 106 109 107 107 106 103 103 102 99 94 93 90 87 84 80 72 57
127 156 37 227 302 26 263 10 188 127 196 205 271 20 24 31 113 47 105 116 61 229 221 83 146 85 205 152 211 195 180 165 146 141 120 104 114 109 115 121 132 143 149 151 153 156 158 152 147 146 138 137 137 136 139 138 132 132 132 134 132 130 127 124 121 121 119 115 115 111 106 102 99 100 102 101 97 101 96 99 102 107 112 111 112 111 109 110 111 107 102 103 99 96 92 85 68
166 105 103 305 279 24 293 41 20 96 206 146 265 37 68 324 38 85 314 155 186 336 70 201 18 153 162 173 188 180 156 154 147 129 123 96 98 109 116 120 127 148 149 157 161 167 164 157 158 155 151 150 149 150 149 148 138 135 137 137 134 132 132 132 133 130 126 123 124 121 116 110 106 106 107 103 108 108 108 110 113 110 118 120 118 119 118 119 121 123 122 122 125 118 115 117 126
78 78 149 196 300 27 286 36 96 105 235 247 296 11 112 294 314 83 173 68 109 129 44 350 119 68 122 212 145 151 136 144 130 129 122 114 119 119 115 121 144 176 155 169 168 172 168 163 168 160 164 160 156 154 155 154 151 141 139 140 139 139 141 141 139 134 130 133 130 131 127 123 124 120 113 116 109 114 118 116 118 123 123 118 116 117 120 124 128 134 143 144 140 136 124 125 149
68 144 127 242 192 280 247 348 288 175 129 216 199 207 113 76 7 260 73 40 92 84 99 57 44 50 82 102 127 130 139 142 139 138 148 143 146 142 142 158 161 198 201 182 194 170 171 171 171 171 173 169 160 156 158 156 157 147 145 145 143 144 143 140 140 145 143 148 148 144 143 144 140 134 131 125 123 119 119 125 121 123 126 123 126 124 128 131 138 147 159 165 158 158 170 168 256
131 162 117 210 195 220 250 194 32 94 179 169 165 98 128 215 133 254 107 229 132 99 104 93 86 64 76 105 123 134 141 145 144 149 156 160 164 166 162 162 171 190 212 206 210 169 173 173 176 177 182 172 164 161 161 161 160 155 153 153 151 151 154 151 158 156 157 161 169 170 165 159 153 148 143 143 138 134 135 132 133 136 139 141 139 141 140 156 159 167 181 182 177 171 181 213 234
236 121 202 233 214 120 43 88 113 67 173 112 98 43 96 184 118 156 166 186 151 166 140 87 129 142 143 138 139 145 147 152 154 157 166 174 175 170 168 170 172 185 196 192 203 187 167 176 182 179 187 172 164 165 163 162 163 160 161 159 157 161 162 164 165 169 173 174 179 187 174 160 162 153 153 142 134 135 136 139 145 143 147 152 156 158 172 178 188 199 208 221 216 189 196 235 221
259 107 187 219 202 102 314 48 29 36 93 145 112 93 70 341 148 129 193 87 250 238 192 170 184 166 162 159 154 154 155 159 165 166 172 177 187 191 188 179 177 178 187 179 186 202 182 176 187 182 183 170 162 165 164 168 166 163 167 165 166 167 173 173 175 180 184 185 184 188 179 166 165 158 154 153 150 151 155 157 161 169 173 170 170 171 191 216 199 226 260 278 258 235 204 227 210
127 206 195 194 87 88 207 120 359 357 76 96 62 73 180 302 55 145 124 158 239 209 222 208 170 163 159 165 167 159 165 168 174 177 181 183 184 190 191 188 176 176 179 186 190 190 197 187 184 187 177 168 162 166 169 172 166 172 173 172 171 175 176 181 184 187 195 195 184 190 175 166 168 163 163 168 163 161 170 178 184 183 181 184 191 193 197 191 215 221 222 234 253 240 221 192 164
183 292 233 247 177 144 202 147 222 290 72 73 89 207 3 63 290 253 167 194 234 216 164 182 160 171 172 159 157 168 171 179 182 186 184 187 194 192 190 186 176 182 185 195 180 188 187 197 190 174 182 169 166 169 169 171 175 178 176 178 172 183 184 184 192 193 198 205 179 190 172 170 176 172 168 173 172 172 176 187 187 186 188 194 193 193 199 199 201 214 220 229 224 213 200 177 191
137 212 235 228 149 158 169 161 175 163 89 106 184 79 121 24 280 261 185 243 225 249 194 150 165 158 142 155 174 174 180 181 191 190 188 191 193 191 188 186 187 180 181 189 188 183 186 193 193 173 181 173 173 173 168 174 182 178 181 180 180 183 183 192 191 193 194 210 182 192 166 169 172 174 178 173 184 179 186 194 195 184 193 204 196 197 195 209 205 209 210 231 198 196 164 218 205
187 238 228 209 81 161 142 149 181 200 190 157 78 96 242 183 205 19 250 245 251 239 159 118 130 146 162 165 178 182 182 187 190 195 193 198 203 201 197 188 183 173 185 187 190 185 190 187 191 186 180 181 175 176 178 174 183 180 180 181 188 181 187 191 189 189 190 204 192 186 180 173 181 174 179 187 173 189 194 197 193 193 192 205 191 208 194 198 211 204 200 205 194 200 215 235 235
202 208 134 202 148 169 157 147 187 182 219 137 87 232 261 252 207 253 238 245 241 215 161 133 140 154 168 179 181 180 187 191 189 188 198 194 193 201 211 192 186 181 187 184 185 192 187 183 189 191 188 183 182 172 185 180 183 188 178 185 189 180 188 192 184 188 192 190 204 180 188 187 179 176 182 191 178 191 192 197 191 187 188 183 183 194 195 186 207 236 233 207 197 215 219 231 216
187 232 185 174 197 149 201 154 210 211 192 181 183 239 252 271 146 270 270 241 234 173 174 163 151 169 181 180 186 187 184 192 192 191 190 194 195 199 211 201 194 190 182 184 186 187 188 181 191 189 190 187 183 183 183 186 186 194 191 182 181 184 187 188 190 185 187 191 199 191 182 185 193 180 174 184 195 183 184 171 185 171 183 186 174 198 191 191 196 206 208 207 204 213 231 215 192
98 127 108 182 329 180 179 174 211 143 276 193 169 240 273 273 206 225 238 288 157 178 187 186 172 180 185 185 185 192 192 194 191 182 191 193 199 196 204 209 199 191 184 187 185 182 185 189 187 189 188 187 188 194 180 187 187 193 195 186 190 188 176 185 190 184 184 189 192 196 186 183 186 190 179 183 188 184 184 180 186 177 191 199 181 196 197 210 205 208 206 185 181 166 208 229 229
144 95 136 284 286 268 201 191 209 163 244 179 160 336 276 229 231 208 229 235 179 170 186 190 195 191 187 190 189 189 198 187 182 194 202 199 194 194 202 208 201 191 197 184 181 179 187 189 186 188 185 187 192 195 189 186 187 186 190 195 196 191 190 183 190 195 187 185 189 193 190 185 187 179 188 185 184 182 185 184 192 200 197 200 194 200 195 205 187 159 204 193 166 175 214 245 198
78 56 129 6 355 286 235 201 178 170 229 155 131 273 253 233 232 223 219 213 191 185 192 202 205 204 202 189 195 199 194 183 191 200 201 200 197 196 202 204 206 194 186 189 177 184 185 188 186 185 188 189 194 195 193 188 185 185 188 193 196 196 197 193 202 198 197 194 186 190 191 189 189 185 175 193 181 179 183 188 194 205 207 206 199 194 190 192 199 187 211 191 203 191 234 250 269
144 184 81 173 286 255 237 185 179 184 194 160 129 217 263 264 266 230 234 198 182 202 209 215 216 215 212 211 200 200 200 194 198 199 197 197 197 201 205 202 202 199 169 187 189 183 182 185 184 191 187 191 192 195 195 196 186 183 186 191 194 194 198 200 205 205 201 204 191 192 192 192 192 191 178 182 189 181 185 194 199 204 202 204 195 196 182 188 187 205 179 193 209 215 215 234 223
155 92 246 278 190 273 288 224 165 185 236 179 126 260 257 251 245 250 196 175 182 203 211 221 221 216 213 211 214 211 207 204 204 198 198 196 193 198 199 200 198 200 192 185 188 181 184 185 186 189 187 191 193 194 195 196 193 190 190 192 191 190 193 201 205 210 207 203 198 194 195 192 195 197 189 182 186 187 188 194 202 200 201 194 193 192 184 190 195 205 203 186 193 218 216 238 225
275 144 206 204 193 244 329 252 188 179 133 231 176 220 299 294 250 243 214 166 182 196 208 214 222 218 212 210 211 213 213 219 210 203 201 196 198 197 197 196 195 197 197 183 182 184 186 187 187 190 189 191 191 193 194 197 197 197 195 194 193 189 192 198 203 208 211 210 206 197 193 192 196 197 196 185 186 189 188 193 199 198 197 194 188 190 191 194 193 202 212 203 189 200 205 221 234
209 154 198 200 194 208 235 303 184 158 153 206 232 239 237 238 312 277 237 174 177 194 209 217 220 221 215 209 208 206 204 202 210 209 205 197 197 197 197 196 195 194 195 192 182 183 188 186 190 193 190 189 188 190 190 193 201 200 202 199 196 196 199 198 200 201 209 212 208 203 193 193 195 195 196 191 194 196 193 192 196 196 192 195 192 189 198 195 196 191 210 211 196 191 203 208 232
170 173 207 238 190 183 207 160 223 149 196 193 213 231 253 254 280 296 267 209 183 201 206 215 222 224 219 215 213 208 202 200 212 210 203 199 196 197 195 195 193 190 191 191 186 184 183 185 187 192 186 186 187 187 184 187 194 201 200 204 207 208 208 208 204 206 208 209 212 204 196 195 196 194 194 194 197 198 200 200 198 200 192 193 194 193 197 199 198 194 198 216 216 201 198 207 214
174 181 192 149 186 226 209 238 228 171 192 220 195 216 238 250 256 267 270 245 213 214 214 221 226 226 231 216 213 213 208 211 211 206 200 197 198 194 196 192 192 190 188 186 186 183 184 183 187 189 190 184 178 184 182 184 184 193 197 205 217 215 211 208 212 212 208 213 212 204 201 199 196 197 197 198 200 199 203 204 205 201 199 191 192 193 197 193 197 200 208 203 214 231 226 215 210
176 187 162 194 182 255 260 219 221 192 174 217 211 219 237 248 243 246 248 238 240 237 227 226 224 224 223 224 215 212 212 215 213 206 200 198 197 197 195 189 193 192 189 186 187 190 188 186 178 191 190 184 180 183 188 187 188 193 203 203 209 204 207 206 211 211 212 213 210 209 201 201 196 198 201 198 203 203 206 206 207 207 198 198 196 200 195 197 196 195 201 199 200 210 227 214 219
219 156 171 208 182 220 244 224 256 133 167 268 245 242 247 251 252 246 249 240 233 225 231 230 225 221 218 216 217 214 217 226 212 218 219 207 199 196 191 191 188 188 200 190 192 195 193 188 189 189 183 190 191 189 188 193 195 195 192 201 198 198 199 202 210 210 212 211 210 210 206 200 197 198 198 199 204 202 204 206 208 207 198 201 202 200 201 198 197 198 192 207 208 199 214 195 206
223 202 185 175 226 197 340 9 45 280 194 270 280 240 260 261 257 258 248 235 229 219 219 222 219 223 222 220 217 214 213 217 210 212 204 202 201 195 190 194 196 197 194 195 197 192 194 195 197 189 190 190 195 191 188 197 198 198 194 194 189 197 205 203 207 206 205 210 212 211 208 203 199 200 195 198 200 204 206 205 209 207 206 196 198 204 201 204 203 203 198 199 208 224 211 206 193
223 198 169 199 224 163 261 302 303 253 169 229 345 305 275 270 259 259 255 245 246 236 223 224 216 217 216 216 213 211 211 212 213 211 210 206 199 195 192 194 198 196 192 199 197 198 197 199 198 196 195 193 193 196 196 198 195 197 203 197 195 194 194 198 207 208 209 210 219 212 213 205 201 201 197 197 200 202 203 206 206 208 209 202 200 202 205 208 205 207 205 208 191 208 209 225 200
221 195 179 171 176 206 165 225 207 253 306 19 360 315 285 236 259 260 246 241 246 245 249 245 237 229 223 226 222 210 208 208 214 218 218 207 204 202 197 199 193 192 196 196 197 199 200 202 199 196 195 197 197 194 194 185 180 189 194 196 190 208 222 197 204 220 212 213 218 214 216 205 202 203 200 200 200 203 203 205 205 207 208 206 205 207 206 208 205 205 201 200 199 201 209 211 220
225 231 187 174 168 134 28 133 125 36 322 268 120 349 285 286 266 261 272 286 255 251 244 246 243 234 230 235 229 227 229 213 207 210 210 208 206 208 209 204 196 199 199 200 199 200 200 202 198 198 201 201 203 198 190 180 182 182 180 187 198 203 211 207 210 211 205 207 213 215 211 207 207 207 203 204 204 203 205 206 206 206 208 209 208 211 210 208 209 205 202 199 203 206 197 199 211
194 239 176 172 143 101 115 115 96 258 232 287 98 194 277 315 299 274 279 293 278 279 242 249 243 242 233 228 221 218 217 226 232 227 217 209 212 207 208 204 202 203 210 205 202 202 202 202 199 199 201 204 203 199 190 189 191 193 192 197 201 203 211 220 220 217 212 217 216 213 215 210 211 210 209 206 207 207 208 208 208 209 209 211 209 210 212 211 208 206 199 201 203 199 191 203 204
214 232 159 171 168 148 133 116 138 211 259 319 30 128 247 300 264 246 269 274 276 282 273 248 243 238 233 231 222 218 218 215 209 215 215 215 211 203 205 208 203 207 207 201 208 211 206 205 199 200 202 204 202 194 191 195 199 201 202 206 207 212 215 223 213 217 215 208 209 216 211 216 214 214 214 212 211 210 212 213 212 213 213 214 209 213 215 213 211 209 204 204 202 197 198 205 201
222 191 166 185 193 157 121 104 118 140 57 280 311 69 289 250 271 293 312 301 279 260 257 260 246 235 238 233 223 219 218 214 207 206 210 210 213 217 217 209 210 209 206 201 200 203 209 209 201 200 205 205 202 190 193 199 203 203 205 208 214 223 224 231 215 208 211 201 211 215 214 216 217 218 216 216 214 213 212 216 213 215 216 217 213 218 219 214 211 208 204 205 206 204 202 205 196
262 88 75 79 83 76 96 92 78 352 69 249 202 171 232 274 283 284 283 247 258 251 249 248 249 237 226 226 229 226 224 224 222 217 212 211 214 217 214 213 209 212 208 205 206 201 199 194 197 197 209 208 202 194 194 200 203 201 205 211 217 223 221 228 199 216 216 199 215 216 214 214 215 217 220 217 216 214 213 212 215 215 217 217 215 219 218 217 216 213 209 207 206 205 202 201 206
160 95 85 64 50 66 48 69 94 48 267 245 188 213 173 286 254 236 186 221 221 262 263 249 251 256 246 234 228 225 224 226 226 229 229 221 219 215 206 205 211 210 208 197 201 198 196 196 200 203 211 209 201 200 195 200 200 200 209 211 216 223 217 211 215 225 219 210 217 218 214 216 212 216 216 221 220 217 215 211 214 217 216 216 217 218 219 217 217 215 212 209 207 205 202 203 206
126 98 126 91 19 24 39 2 53 155 256 271 208 201 172 219 283 267 237 262 237 212 233 238 232 226 223 205 211 213 210 216 221 208 213 214 230 236 206 219 213 208 198 201 204 199 198 200 199 206 213 209 204 203 199 203 196 204 211 212 215 220 213 210 216 223 218 220 222 223 219 217 217 216 214 219 221 219 217 215 214 217 218 216 217 217 220 219 218 215 212 209 210 208 205 200 203
110 118 123 134 179 65 278 66 215 215 227 234 191 180 26 241 220 259 275 238 263 228 217 185 173 178 162 151 156 151 156 146 166 188 193 200 200 214 217 223 205 204 201 204 204 200 200 200 198 203 215 211 207 200 201 204 202 205 210 213 218 218 215 218 221 225 221 221 222 225 217 219 219 217 219 219 223 218 217 221 217 217 220 220 221 219 224 221 220 216 214 211 209 204 203 200 203
147 158 152 140 121 150 203 228 297 298 279 252 95 163 245 299 262 229 259 261 232 251 244 210 188 178 184 182 177 178 178 178 195 205 213 218 220 228 227 233 225 213 216 213 209 201 200 199 200 204 218 210 208 201 204 207 210 213 213 214 218 214 217 219 222 225 225 223 221 225 221 221 219 221 222 223 223 217 219 223 223 224 224 224 221 223 223 223 222 222 217 216 212 209 202 202 205
172 133 163 173 154 160 195 176 196 209 211 218 265 107 235 127 249 231 230 249 299 224 245 227 225 194 183 169 154 309 245 242 225 229 223 218 221 211 213 214 217 214 213 212 204 205 191 203 197 207 220 216 204 209 206 211 216 218 217 216 217 215 219 220 224 226 227 226 226 229 230 229 227 229 227 229 218 217 219 220 221 223 221 222 221 222 224 223 222 223 221 219 216 210 204 201 206
335 142 76 131 209 131 150 196 136 176 159 140 206 210 191 185 269 291 243 283 294 273 246 210 199 180 111 108 173 207 237 248 240 225 238 243 228 215 214 216 215 215 218 209 203 193 191 203 198 206 211 209 202 207 209 211 217 216 217 219 219 220 221 223 229 228 233 231 232 229 234 231 232 233 230 223 219 212 215 218 218 220 219 219 219 222 223 224 222 222 221 216 217 206 205 204 205
194 140 196 200 123 90 106 28 320 94 57 247 173 295 288 298 298 262 273 258 259 265 260 229 208 196 134 179 234 243 232 213 220 208 216 236 256 254 222 210 226 231 238 235 219 199 199 200 204 218 222 219 215 215 217 217 222 218 223 222 223 223 222 225 229 232 231 230 230 230 231 231 230 228 229 215 218 213 215 216 218 220 218 219 220 223 226 226 224 222 220 217 216 204 206 208 204
94 168 198 95 92 113 122 193 2 136 194 262 141 226 289 8 276 265 231 235 244 243 230 220 235 215 173 211 217 217 210 220 224 232 237 225 215 223 238 239 212 208 214 226 237 219 192 192 197 212 227 229 240 235 242 238 235 236 238 237 236 231 230 230 229 233 227 226 229 232 231 233 231 229 223 219 214 216 217 216 220 220 219 218 222 225 226 227 224 228 226 219 212 201 207 208 207
169 180 168 145 218 231 249 117 221 172 234 271 265 243 252 201 237 347 202 220 239 236 229 215 218 212 189 209 227 229 238 235 240 234 229 238 232 236 231 223 229 218 211 211 225 224 215 213 208 196 225 233 233 236 237 248 235 236 233 232 228 230 227 229 230 230 227 228 232 232 233 237 239 232 228 221 216 219 217 217 218 222 218 221 223 227 224 226 225 229 227 231 220 205 205 210 209
45 100 173 180 97 232 154 201 169 120 249 287 292 86 241 199 219 192 225 206 215 214 205 210 202 191 183 200 200 199 202 210 212 218 221 222 229 225 216 216 223 224 220 224 225 240 249 263 270 260 270 257 251 243 231 234 228 217 229 227 232 228 232 234 237 236 239 241 243 242 241 243 237 226 225 221 217 217 213 214 214 218 220 221 225 226 223 226 224 226 222 222 225 217 210 209 208
159 172 185 194 131 236 121 114 138 167 175 191 256 298 260 253 215 188 217 204 206 197 198 204 195 190 189 192 187 194 199 203 210 210 215 222 224 235 239 229 227 228 234 203 192 203 225 241 239 233 225 238 238 238 233 238 234 238 235 237 241 243 248 250 252 244 246 247 249 244 244 239 235 234 221 222 219 215 212 213 213 215 219 222 223 225 222 219 224 230 222 214 213 218 218 216 202
183 179 189 180 164 135 164 237 78 127 149 226 168 252 265 270 185 206 219 217 203 205 185 191 189 192 191 197 201 186 191 213 207 215 215 216 226 241 255 288 360 110 212 219 228 217 231 226 226 230 235 238 236 243 235 244 245 265 264 275 280 281 276 273 265 261 254 256 253 251 248 252 241 244 220 225 220 215 211 210 212 213 217 220 216 217 213 220 224 219 224 223 208 208 222 217 201